Location: Meinert
(37.9441°N, 122.0275°W)
Time: 19:13:22
(UTC+00:00)

Thor Agena Rocket - Pass Details

Date: 18 April 2024
Orbit: 757 x 805 km, 99.1° (Epoch: 22 May)

Event Time Altitude Azimuth Distance (km) Brightness Sun altitude
Rises 12:34:48 0° 2° (N) 3,221 7.1 -10.7°
Reaches altitude 10° 12:37:20 10° 352° (N) 2,293 6.2 -10.2°
Maximum altitude 12:41:40 30° 292° (WNW) 1,337 4.4 -9.4°
Drops below altitude 10° 12:46:01 10° 232° (SW) 2,294 5.4 -8.6°
Enters shadow 12:46:12 - 231° (SW) 2,354 5.4 -8.6°
